Flag for Norway Weather past 2 weeks in Bardufoss, Norway

Now
55 °F

Scattered showers. Broken clouds.


Feels Like: 54 °F
Forecast: 48 / 53 °F
Wind: 7 mph from West

Location: Bardufoss

Current Time: Jul 31, 2015 at 8:08:06 PM

Latest Report: Jul 31, 2015 at 6:50 PM


Visibility: N/A

Pressure: 29.71 "Hg

Humidity: 94%

Dew point: 54 °F

Location of BardufossLocation

Historic Weather in Bardufoss — Graph

°F

Bardufoss temperature yesterday

Maximum temperature yesterday: 66 °F (at 2:50 PM)
Minimum temperature yesterday: 55 °F (at 12:50 AM)
Average temperature yesterday: 60 °F

Past Weeks' High & Low Weather Summary

 TemperatureHumidityPressure
High72 °F (Jul 28, 11:20 AM)100% (Jul 20, 3:50 AM)29.92 "Hg (Jul 20, 3:50 AM)
Low41 °F (Jul 22, 3:50 AM)26% (Jul 18, 6:20 PM)29.45 "Hg (Jul 19, 2:50 AM)
Average58 °F73%29.65 "Hg
* Reported Jul 16 6:20 PM — Jul 31 6:50 PM, Bardufoss, Weather by CustomWeather, © 2015

Note: Actual official high and low records may vary slightly from our data, if they occured in-between our weather recording intervals... More about our weather records

Advertising

Bardufoss weather history for previous 24 hours

 ConditionsComfort  
Time TempWeatherWind HumidityBarometerVisibility
6:50 PM
Fri, Jul 31
55 °FScattered showers. Broken clouds.7 mph94%29.71 "HgN/A
6:20 PM55 °FScattered showers. Partly sunny.8 mph94%29.71 "HgN/A
5:50 PM55 °FScattered showers. Partly sunny.6 mph100%29.68 "HgN/A
5:20 PM55 °FMixture of precip. Partly sunny.8 mph100%29.68 "HgN/A
4:50 PM55 °FDrizzle. Partly sunny.7 mph100%29.68 "Hg4 mi
4:20 PM57 °FDrizzle. Partly sunny.12 mph94%29.68 "Hg4 mi
3:50 PM57 °FDrizzle. Fog.8 mph94%29.65 "Hg2 mi
3:20 PM57 °FDrizzle. Partly sunny.8 mph94%29.65 "Hg2 mi
2:50 PM57 °FDrizzle. Broken clouds.9 mph94%29.65 "HgN/A
2:20 PM59 °FScattered showers. Broken clouds.7 mph88%29.62 "HgN/A
1:50 PM59 °FScattered showers. Broken clouds.9 mph88%29.62 "HgN/A
1:20 PM59 °FScattered showers. Broken clouds.5 mph94%29.62 "HgN/A
12:50 PM59 °FScattered showers. Broken clouds.5 mph94%29.62 "HgN/A
12:20 PM59 °FDrizzle. Fog.1 mph94%29.62 "HgN/A
11:50 AM59 °FDrizzle. Fog.1 mph94%29.59 "HgN/A
11:20 AM57 °FDrizzle. Partly sunny.6 mph94%29.59 "Hg5 mi
10:50 AM59 °FDrizzle. Partly sunny.7 mph94%29.59 "HgN/A
10:20 AM59 °FDrizzle. Partly sunny.6 mph88%29.59 "HgN/A
9:20 AM61 °FLight rain. Partly sunny.6 mph83%29.56 "HgN/A
8:50 AM61 °FScattered showers. Partly sunny.5 mph83%29.56 "HgN/A
8:20 AM61 °FPartly sunny.2 mph83%29.53 "HgN/A
7:50 AM61 °FPartly sunny.3 mph83%29.53 "HgN/A
7:20 AM61 °FPartly sunny.3 mph83%29.53 "HgN/A
6:50 AM61 °FPartly sunny.5 mph83%29.53 "HgN/A
6:20 AM61 °FPartly sunny.1 mph83%29.53 "HgN/A
5:50 AM59 °FPartly sunny.2 mph94%29.53 "HgN/A
5:20 AM57 °FPartly sunny.1 mph94%29.53 "HgN/A
4:50 AM57 °FPartly sunny.2 mph88%29.53 "HgN/A
3:50 AM55 °FPartly sunny.1 mph94%29.53 "HgN/A
2:50 AM57 °FPassing clouds.No wind88%29.53 "HgN/A
1:50 AM57 °FPassing clouds.2 mph88%29.53 "HgN/A
12:50 AM61 °FPartly cloudy.3 mph77%29.50 "HgN/A
11:50 PM
Thu, Jul 30
61 °FBroken clouds.5 mph83%29.50 "HgN/A
10:50 PM63 °FBroken clouds.7 mph77%29.50 "HgN/A
9:50 PM63 °FBroken clouds.10 mph73%29.47 "HgN/A
8:50 PM63 °FBroken clouds.15 mph73%29.47 "HgN/A
Weather by CustomWeather, © 2015

See weather overviewHow to use our weather pages